Погода в Махалине

Россия / Пензенская область     53°05′07″N   46°13′16″E
темп.,
°C
ветер,
м/с
пор.,
м/с
влажн.,
%
обл.,
%
осадки,
мм/ч
давл.,
гПа
погр.,
м
21 июня, пн
пн2100:00+18всв11860 0.0 102211
03:00+17св11870 0.0 102311
06:00+21св11818 0.0 102376
09:00+26ююз00645 0.0 1023636
12:00+28зюз115399 0.0 10221443
15:00+28зюз115097 0.0 10221584
18:00+27зюз2266100 0.0 102167
21:00+22ссв1176100 0.0 102211
22 июня, вт
вт2200:00+20св227781 0.0 102211
03:00+19св118257 0.0 102211
06:00+22всв23770 0.0 1023111
09:00+27вюв22610 0.0 1022616
12:00+29ююв22480 0.0 10231701
15:00+30ююз22470 0.0 10222043
18:00+28ю23650 0.0 1021137
21:00+23юз11673 0.0 102211
23 июня, ср
ср2300:00+21св11745 0.0 102211
03:00+20вюв11745 0.0 102211
06:00+23вюв116848 0.0 102260
09:00+24ссв227397 0.0 102261
12:00+29ююв11510 0.0 1022884
15:00+30зюз124310 0.0 10211834
18:00+26з466895 0.1 1021222
21:00+21всв337514 1.7 102137
24 июня, чт
чт2400:00+19с11760 0.0 102111
03:00+18ссз22790 0.0 102111
06:00+22ссз23770 0.0 102196
09:00+27сз22610 0.0 1020549
12:00+29з33516 0.0 10201770
15:00+26сз346764 0.0 1019143
18:00+26ссв367025 0.6 1019167
21:00+18ююз229310 5.3 101937
25 июня, пт
пт2500:00+19сз11902 0.0 101811
03:00+18ссз228610 0.0 101819
06:00+21ссз128255 0.0 1018100
09:00+26сз226865 0.0 1017446
12:00+30ссз234993 0.4 10161711
15:00+30ссз455187 0.4 10161914
18:00+28ссв356830 0.1 1015217
21:00+23ссз11805 0.2 101511